Date,TemperatureHighF,TemperatureAvgF,TemperatureLowF,DewpointHighF,DewpointAvgF,DewpointLowF,HumidityHigh,HumidityAvg,HumidityLow,PressureMaxIn,PressureMinIn,WindSpeedMaxMPH,WindSpeedAvgMPH,GustSpeedMaxMPH,PrecipitationSumIn
2013-1-1,33.4,28.9,19.7,31.7,25.0,14.8,95,85,71,30.18,30.04,0,0,0,0.00
2013-1-2,27.1,18.4,12.8,18.3,13.2,9.6,91,80,63,30.30,30.15,8,1,8,0.01
2013-1-3,33.9,21.0,7.1,24.4,15.3,4.3,91,79,55,30.34,30.24,16,2,16,0.01
2013-1-4,34.1,28.3,20.3,25.1,21.8,15.7,83,77,64,30.36,30.28,21,4,21,0.01
2013-1-5,36.8,26.1,13.9,30.1,21.8,11.7,93,84,71,30.42,30.19,10,1,10,0.04
2013-1-6,38.1,33.2,27.1,33.5,29.1,23.7,91,85,80,30.34,30.03,23,4,23,0.09
2013-1-7,37.7,30.3,22.5,28.8,25.9,20.3,92,84,67,30.51,30.29,15,2,15,0.02
2013-1-8,47.2,31.2,18.3,35.0,26.6,16.6,94,84,62,30.38,30.26,9,1,9,0.01
2013-1-9,48.7,38.9,29.4,41.5,34.6,26.0,92,85,73,30.53,30.23,16,2,16,0.06
2013-1-10,40.6,34.3,25.4,34.3,30.3,23.9,96,86,76,30.58,30.20,11,1,11,0.06
2013-1-11,61.8,49.6,40.2,56.3,46.0,34.2,96,88,71,30.20,29.91,24,4,24,0.18
2013-1-12,64.3,56.1,44.3,60.4,54.3,43.2,98,94,83,30.05,29.84,19,3,19,0.01
2013-1-13,64.8,57.0,38.6,60.3,55.0,37.0,97,93,80,30.07,29.76,35,5,35,0.47
2013-1-14,38.9,30.1,25.3,37.0,26.0,22.0,94,85,75,30.45,30.07,16,3,16,0.47
2013-1-15,34.6,29.4,24.3,27.3,24.2,21.4,90,81,72,30.43,30.11,13,3,13,0.00
2013-1-16,36.9,33.1,31.7,30.7,28.2,26.1,92,82,74,30.14,29.97,14,2,14,0.00
2013-1-17,39.4,33.5,25.7,31.3,27.9,17.8,95,80,71,30.37,30.09,23,2,23,0.00
2013-1-18,36.9,27.9,17.2,27.2,19.7,12.2,87,72,55,30.56,30.25,23,4,23,0.00
2013-1-19,54.1,43.5,33.5,31.4,28.3,25.2,75,56,37,30.25,29.87,31,9,31,0.00
2013-1-20,44.4,32.5,23.6,35.8,20.9,14.7,72,62,50,30.22,29.86,28,7,28,0.00
2013-1-21,26.0,20.7,10.3,18.8,12.2,0.9,81,69,57,30.25,30.07,26,6,26,0.00
2013-1-22,20.5,12.1,6.5,4.4,1.2,-1.1,75,62,45,30.41,30.24,21,5,21,0.00
2013-1-23,22.5,16.2,9.2,15.2,6.9,1.7,87,67,42,30.40,30.14,17,2,17,0.00
2013-1-24,25.6,18.1,13.6,15.6,11.4,8.4,88,75,55,30.62,30.14,24,4,24,0.00
2013-1-25,23.8,20.4,17.3,21.0,14.7,8.9,89,78,65,30.53,30.08,12,2,12,0.00
2013-1-26,32.9,25.7,17.4,24.8,20.5,12.9,92,81,69,30.50,30.15,0,0,0,0.05
2013-1-27,35.5,24.6,10.5,30.0,18.9,7.8,92,79,62,30.54,30.26,0,0,0,0.14
2013-1-28,51.4,43.3,32.1,49.1,41.8,30.0,96,94,91,30.26,30.03,0,0,0,0.15
2013-1-29,67.0,56.6,47.4,58.2,52.7,46.3,100,87,71,30.06,29.64,27,5,27,0.15
2013-1-30,62.5,54.5,34.8,57.0,50.5,29.8,94,86,78,29.64,29.22,32,10,32,0.32
2013-1-31,34.7,26.9,18.9,30.1,21.1,14.0,92,79,64,29.99,29.45,34,10,34,0.32
2013-2-1,19.5,12.8,7.5,14.2,6.3,1.8,86,75,64,30.43,29.98,25,6,25,0.00
2013-2-2,28.1,21.2,9.6,24.8,17.6,5.2,91,86,80,30.40,30.04,18,3,18,0.00
2013-2-3,26.2,23.0,17.6,23.7,18.6,12.7,90,83,70,30.14,29.94,0,0,0,0.00
2013-2-4,29.7,23.3,14.0,27.9,19.8,11.0,93,87,71,30.15,29.88,0,0,0,0.00
2013-2-5,33.4,29.8,26.3,30.2,26.4,23.8,94,87,76,30.01,29.89,0,0,0,0.09
2013-2-6,39.0,31.2,22.4,30.1,25.1,18.9,89,79,57,30.33,30.01,0,0,0,0.10
2013-2-7,50.6,36.1,22.3,35.8,29.0,19.3,89,76,55,30.29,29.84,0,0,0,0.01
2013-2-8,42.8,34.7,27.3,38.7,30.1,20.1,93,83,74,30.34,29.79,0,0,0,0.15
2013-2-9,39.1,27.9,18.7,26.2,20.5,16.0,90,75,51,30.48,30.31,0,0,0,0.00
2013-2-10,48.4,37.8,23.5,41.7,28.3,18.4,85,69,48,30.32,29.85,0,0,0,0.02
2013-2-11,52.1,45.6,37.9,47.5,37.3,27.9,94,74,52,30.01,29.76,0,0,0,0.02
2013-2-12,48.2,37.6,30.3,32.2,27.9,25.2,83,69,48,30.14,29.93,0,0,0,0.00
2013-2-13,34.0,30.3,26.2,29.8,27.1,23.8,92,88,82,29.94,29.77,0,0,0,0.01
2013-2-14,47.6,34.4,22.6,40.0,31.1,20.9,95,88,73,30.00,29.85,0,0,0,0.02
2013-2-15,38.5,31.6,25.9,34.8,28.2,23.0,92,87,73,30.15,29.99,0,0,0,0.03
2013-2-16,32.0,23.1,15.9,26.1,18.2,10.4,92,82,67,30.15,30.02,0,0,0,0.02
2013-2-17,29.6,19.0,11.8,18.6,11.6,7.5,84,73,51,30.31,30.11,0,0,0,0.02
2013-2-18,52.4,34.9,15.8,37.0,23.3,10.5,82,64,46,30.31,29.80,0,0,0,0.01
2013-2-19,47.2,32.4,22.4,40.1,27.9,16.6,93,83,68,30.09,29.66,0,0,0,0.19
2013-2-20,27.7,21.6,17.4,17.8,14.9,11.4,82,75,63,30.32,30.09,0,0,0,0.00
2013-2-21,31.9,26.3,21.6,23.0,19.1,15.2,78,74,66,30.40,30.22,0,0,0,0.00
2013-2-22,43.9,34.1,26.7,40.4,30.7,19.5,96,87,74,30.23,29.96,0,0,0,0.05
2013-2-23,43.7,37.5,34.5,33.0,31.3,27.1,92,79,59,30.01,29.91,0,0,0,0.05
2013-2-25,42.9,40.4,36.3,41.8,38.5,31.9,96,93,83,29.76,29.48,0,0,0,0.76
2013-2-26,41.0,35.3,32.0,38.3,32.9,29.9,93,91,88,29.71,29.64,0,0,0,0.08
2013-2-27,37.7,34.7,31.8,35.9,32.0,28.1,93,90,86,29.99,29.70,0,0,0,0.07
2013-2-28,33.7,30.0,26.7,29.1,24.7,21.8,86,81,75,30.07,29.99,0,0,0,0.00
2013-3-1,30.1,27.5,24.4,24.5,22.0,18.8,84,79,74,30.09,30.04,0,0,0,0.00
2013-3-2,27.6,25.7,24.7,19.0,18.1,17.3,75,72,67,30.09,30.08,0,0,0,0.00
2013-3-3,33.9,29.3,24.4,23.0,19.2,16.8,78,66,54,30.10,30.04,0,0,0,0.00
2013-3-4,44.1,31.1,18.5,25.3,19.5,12.6,92,63,38,30.21,30.07,0,0,0,0.00
2013-3-5,40.1,35.2,29.9,32.4,29.0,25.6,94,79,64,30.11,29.57,0,0,0,0.13
2013-3-6,38.4,34.3,31.9,33.5,31.3,28.6,95,89,80,30.24,29.57,0,0,0,0.73
2013-3-7,42.4,34.8,31.2,33.7,29.7,26.9,87,82,69,30.39,30.22,0,0,0,0.19
2013-3-8,45.7,35.3,27.5,33.0,28.4,23.5,91,77,56,30.50,30.38,0,0,0,0.19
2013-3-9,57.8,41.1,24.8,39.1,31.0,22.8,93,70,43,30.42,30.09,0,0,0,0.00
2013-3-10,71.0,56.4,42.7,42.6,37.3,32.6,74,51,29,30.09,29.85,24,2,24,0.02
2013-3-11,58.7,50.4,40.2,51.6,44.6,35.4,96,82,46,29.87,29.57,32,6,32,0.46
2013-3-12,40.0,36.9,31.3,35.9,31.9,28.1,89,82,73,30.04,29.82,20,4,20,0.46
2013-3-13,35.2,30.8,26.5,31.4,25.7,19.4,92,81,69,30.30,29.99,0,0,0,0.01
2013-3-14,45.4,32.2,23.0,29.6,21.7,17.7,82,66,43,30.36,30.17,0,0,0,0.01
2013-3-15,50.9,39.4,28.0,41.4,32.5,21.9,93,77,63,30.18,29.86,0,0,0,0.08
2013-3-16,56.4,42.7,33.1,50.6,39.5,30.2,96,88,79,30.04,29.62,0,0,0,0.19
2013-3-17,39.9,35.2,32.5,30.3,28.3,25.9,89,76,63,30.19,30.04,0,0,0,0.00
2013-3-18,49.8,40.5,32.5,48.7,38.3,27.3,96,92,74,30.10,29.62,0,0,0,0.12
2013-3-19,41.9,36.0,29.8,36.6,26.2,19.6,87,69,47,30.06,29.80,0,0,0,0.13
2013-3-20,41.2,31.7,23.0,28.5,19.6,12.4,73,61,49,30.06,29.94,0,0,0,0.00
2013-3-21,35.1,25.4,18.4,23.1,17.8,12.2,86,73,60,30.04,29.95,0,0,0,0.01
2013-3-22,46.1,32.1,21.2,29.5,20.5,16.4,83,64,39,30.09,30.01,0,0,0,0.01
2013-3-23,51.2,36.5,23.9,32.7,24.8,19.4,86,65,38,30.10,29.97,0,0,0,0.00
2013-3-24,37.7,34.2,31.8,32.5,27.3,23.0,93,76,57,29.99,29.44,0,0,0,0.03
2013-3-25,36.1,33.1,30.6,32.9,31.0,29.1,95,92,86,29.90,29.42,0,0,0,0.30
2013-3-26,45.1,36.2,32.0,36.9,30.9,26.4,96,82,56,30.19,29.90,0,0,0,0.15
2013-3-27,47.7,38.2,33.1,36.1,29.3,25.1,87,71,50,30.29,30.19,0,0,0,0.15
2013-3-28,53.9,39.7,28.8,37.9,27.9,23.4,82,64,44,30.33,30.27,0,0,0,0.00
2013-3-29,56.2,41.6,27.8,38.1,30.0,24.0,92,65,45,30.33,30.22,0,0,0,0.00
2013-3-30,60.2,43.7,26.6,37.8,29.7,23.8,91,62,33,30.27,29.98,0,0,0,0.00
2013-3-31,57.6,47.7,41.7,49.2,40.0,29.1,94,75,53,29.98,29.75,0,0,0,0.02
2013-4-1,48.6,41.2,31.9,41.2,28.0,17.5,85,61,42,30.13,29.76,0,0,0,0.02
2013-4-2,47.7,34.8,22.7,27.5,19.9,15.9,78,55,37,30.28,30.13,0,0,0,0.00
2013-4-3,48.7,36.0,22.5,27.0,18.2,14.5,72,50,31,30.45,30.28,0,0,0,0.00
2013-4-4,55.2,40.0,28.1,26.7,19.7,14.0,63,46,25,30.40,30.00,0,0,0,0.00
2013-4-5,60.2,44.7,29.1,39.7,27.9,22.4,80,54,32,30.18,29.97,0,0,0,0.00
2013-4-6,61.9,46.4,30.8,27.7,23.8,19.5,71,44,24,30.28,29.94,0,0,0,0.00
2013-4-7,74.4,61.9,51.4,51.2,40.9,26.3,64,47,36,29.99,29.85,0,0,0,0.00
2013-4-8,72.9,62.8,53.1,55.2,51.6,41.0,89,68,51,29.99,29.86,0,0,0,0.00
2013-4-9,82.3,68.3,51.5,61.0,55.5,48.9,93,66,42,30.07,29.88,0,0,0,0.00
2013-4-10,83.7,69.9,60.3,67.1,59.9,55.3,88,72,51,29.93,29.76,0,0,0,0.00
2013-4-11,66.5,60.5,54.1,62.8,58.1,51.4,96,92,86,29.86,29.53,0,0,0,0.68
2013-4-12,59.1,48.4,42.2,58.1,43.8,35.3,97,85,68,29.91,29.47,0,0,0,0.78
2013-4-13,55.2,44.9,36.6,41.5,36.7,31.8,85,73,58,30.06,29.91,0,0,0,0.00
2013-4-14,68.0,50.7,34.2,47.8,39.1,31.3,92,68,41,30.14,29.93,0,0,0,0.00
2013-4-15,70.8,60.0,45.6,56.3,49.4,40.2,84,69,56,30.02,29.92,0,0,0,0.00
2013-4-16,79.0,63.1,55.4,65.7,57.0,50.5,96,81,56,30.17,29.96,0,0,0,0.75
2013-4-17,69.3,59.8,54.1,62.8,57.0,53.0,97,91,78,30.22,30.00,0,0,0,0.85
2013-4-18,85.2,70.2,56.9,66.1,59.0,55.3,96,71,41,30.01,29.63,0,0,0,0.00
2013-4-19,70.8,52.2,40.0,60.1,43.5,31.2,92,73,57,29.94,29.39,0,0,0,0.04
2013-4-20,50.4,40.9,34.4,36.0,31.0,26.8,91,69,48,30.43,29.94,0,0,0,0.01
2013-4-21,57.2,43.2,28.3,38.9,28.7,23.9,85,59,35,30.59,30.43,0,0,0,0.01
2013-4-22,70.8,52.7,33.7,48.2,36.5,26.3,78,56,34,30.43,30.16,0,0,0,0.00
2013-4-23,72.8,58.8,41.5,52.2,43.4,32.8,78,58,37,30.17,29.88,0,0,0,0.00
2013-4-24,62.2,51.3,35.9,55.1,45.6,33.1,94,81,67,30.21,29.75,0,0,0,0.59
2013-4-25,58.7,44.9,33.8,43.0,35.2,27.6,95,71,49,30.39,30.20,0,0,0,0.60
2013-4-26,40.2,35.3,31.3,30.5,29.5,28.3,90,79,68,30.43,30.39,0,0,0,0.00
2013-4-28,66.0,59.6,55.1,61.8,57.4,53.7,96,92,81,29.95,29.82,0,0,0,0.17
2013-4-29,66.7,59.6,52.3,60.9,56.0,50.3,97,88,72,29.98,29.87,0,0,0,0.22
2013-4-30,77.7,62.2,46.5,61.8,54.1,45.7,98,78,51,30.08,29.98,0,0,0,0.00
2013-5-7,73.5,64.2,55.8,63.2,57.4,53.6,96,79,61,29.98,29.91,0,0,0,0.02
2013-5-8,74.8,63.3,53.2,61.5,55.0,50.6,93,75,54,29.97,29.90,0,0,0,0.01
2013-5-9,81.3,66.1,51.3,63.3,55.4,49.3,94,72,41,30.00,29.93,0,0,0,0.01
2013-5-10,74.0,64.6,59.0,65.7,61.6,57.6,96,91,74,29.88,29.78,0,0,0,0.28
2013-5-11,61.7,54.1,45.7,60.5,50.6,40.2,96,88,76,29.97,29.80,0,0,0,0.03
2013-5-12,55.7,44.0,37.7,40.2,36.0,31.3,94,76,46,30.13,29.97,0,0,0,0.03
2013-5-13,60.8,47.3,35.0,42.3,34.6,29.4,93,64,37,30.20,30.11,0,0,0,0.00
2013-5-14,77.5,55.1,37.5,56.6,42.8,33.8,90,67,41,30.17,29.84,0,0,0,0.00
2013-5-16,79.5,70.9,63.4,66.5,62.5,55.4,94,76,45,29.96,29.83,0,0,0,0.00
2013-5-17,82.7,68.6,59.1,70.5,62.4,57.6,98,82,54,30.08,29.96,0,0,0,0.01
2013-5-18,82.2,67.9,61.3,68.9,61.9,59.1,95,82,58,30.07,29.97,0,0,0,0.01
2013-5-19,78.2,71.5,64.2,70.4,66.6,62.7,95,85,74,30.01,29.98,0,0,0,0.00
2013-5-21,87.8,79.2,66.7,68.7,65.0,61.1,95,64,44,29.91,29.77,0,0,0,0.00
2013-5-22,82.8,72.3,63.1,66.7,62.7,60.1,94,73,52,29.83,29.70,0,0,0,0.28
2013-5-23,75.3,63.6,49.5,65.3,58.7,45.6,96,85,58,30.04,29.76,0,0,0,0.05
2013-5-24,62.2,51.8,43.2,47.7,41.5,38.4,88,69,48,30.33,30.04,0,0,0,0.01
2013-5-25,67.0,53.4,37.4,50.3,41.9,35.8,95,68,46,30.40,30.24,0,0,0,0.01
2013-5-26,72.8,56.7,41.3,47.2,40.2,33.3,92,59,27,30.34,30.21,0,0,0,0.00
2013-5-27,72.7,59.7,47.9,55.4,48.8,38.9,91,68,48,30.25,30.00,0,0,0,0.04
2013-5-28,85.8,74.1,63.1,68.7,61.9,55.3,86,67,47,30.02,29.92,0,0,0,0.04
2013-5-29,89.0,77.8,68.3,64.9,61.5,56.0,74,59,36,30.05,29.96,0,0,0,0.00
2013-5-30,90.8,77.5,63.7,71.5,65.0,61.3,93,68,43,30.14,29.99,0,0,0,0.00
2013-5-31,89.0,73.8,65.5,70.4,65.2,61.3,96,76,47,30.05,29.92,0,0,0,0.32
2013-6-1,84.7,74.9,65.2,70.5,67.3,64.0,96,78,57,29.96,29.74,0,0,0,0.06
2013-6-2,79.3,71.3,65.2,68.4,62.5,58.5,93,75,53,29.89,29.75,0,0,0,0.06
2013-6-3,72.0,62.1,53.1,59.4,54.2,48.6,86,76,57,30.07,29.89,0,0,0,0.00
2013-6-4,78.8,62.6,43.3,56.0,47.6,41.1,93,61,37,30.18,30.07,0,0,0,0.00
2013-6-5,84.8,69.6,53.2,64.3,54.1,45.8,82,59,41,30.12,29.85,0,0,0,0.00
2013-6-6,71.4,65.4,59.3,66.4,62.9,57.6,97,92,64,29.88,29.75,0,0,0,0.20
2013-6-7,72.5,61.2,56.6,62.4,56.6,53.3,95,85,66,29.90,29.81,0,0,0,0.02
2013-6-8,66.7,57.1,53.3,58.5,54.3,51.6,96,91,73,30.00,29.89,0,0,0,0.02
2013-6-11,88.5,77.8,65.0,77.5,70.5,63.5,96,80,64,29.83,29.55,0,0,0,0.02
2013-6-12,77.7,67.9,57.8,68.4,59.6,55.5,94,77,51,29.96,29.58,0,0,0,0.02
2013-6-13,78.5,66.7,53.2,62.9,57.4,51.8,96,74,52,30.11,29.97,0,0,0,0.01
2013-6-14,80.8,73.6,65.7,66.0,63.2,60.6,89,71,54,30.12,29.91,0,0,0,0.01
2013-6-15,77.8,71.4,66.7,68.7,66.2,65.1,95,84,70,29.96,29.91,0,0,0,0.01
2013-6-16,70.4,69.2,68.5,65.7,65.3,65.0,90,88,85,29.94,29.93,0,0,0,0.01
2013-6-17,75.6,69.2,66.6,66.1,65.3,63.4,95,88,66,29.94,29.87,0,0,0,0.01
2013-6-18,83.5,72.7,63.8,73.3,65.3,57.2,93,78,56,29.98,29.82,0,0,0,0.01
2013-6-19,81.8,67.9,56.5,59.7,53.4,44.6,93,64,30,30.13,29.98,0,0,0,0.00
2013-6-20,87.3,70.0,52.2,64.6,56.6,49.9,93,66,38,30.21,30.12,0,0,0,0.00
2013-6-21,89.0,74.4,57.3,68.2,61.4,55.1,94,67,39,30.22,30.10,0,0,0,0.00
2013-6-22,91.7,77.5,64.3,74.1,67.2,61.8,94,72,49,30.14,30.01,0,0,0,0.00
2013-6-23,91.7,77.8,64.3,73.1,66.3,62.2,94,70,45,30.12,30.00,0,0,0,0.00
2013-6-24,88.2,77.1,64.1,73.0,67.5,61.8,93,74,54,30.11,29.98,0,0,0,0.00
2013-6-25,92.5,80.5,68.9,75.8,70.5,66.0,93,73,52,30.04,29.84,0,0,0,0.00
2013-6-26,87.5,75.3,68.3,74.9,69.5,65.2,96,83,63,29.91,29.76,0,0,0,0.06
2013-6-27,87.1,74.9,67.1,76.2,69.7,65.9,97,85,61,29.78,29.63,0,0,0,0.01
2013-6-28,84.8,74.2,64.9,72.2,66.1,58.6,94,77,53,29.64,29.52,0,0,0,0.01
2013-6-29,82.0,68.8,61.8,71.4,63.6,59.5,96,84,58,29.67,29.54,0,0,0,0.01
2013-6-30,80.0,68.7,61.2,70.7,64.8,60.2,98,88,69,29.84,29.66,0,0,0,0.27
2013-7-1,82.6,70.9,65.3,72.6,66.4,62.3,94,86,67,29.91,29.81,0,0,0,0.04
2013-7-2,83.6,74.2,66.3,73.9,68.0,64.3,95,82,64,30.00,29.89,0,0,0,0.01
2013-7-3,84.9,74.9,67.0,74.0,69.0,65.8,97,83,62,30.11,30.00,0,0,0,0.01
2013-7-4,78.5,72.4,70.4,71.8,69.4,68.2,95,90,76,30.15,30.08,0,0,0,0.23
2013-7-5,78.7,72.6,67.3,73.4,69.3,66.4,97,89,77,30.14,30.07,0,0,0,0.15
2013-7-6,83.8,74.6,70.1,76.2,70.5,66.6,96,87,72,30.13,29.99,0,0,0,0.02
2013-7-7,83.3,72.8,66.0,72.1,66.7,62.4,95,82,61,30.10,30.00,0,0,0,0.02
2013-7-8,82.5,73.4,65.2,77.5,69.7,62.1,96,88,77,30.12,30.01,0,0,0,0.45
2013-7-9,88.8,76.5,71.6,78.9,72.9,69.7,96,89,70,30.05,29.95,0,0,0,0.41
2013-7-10,89.7,75.3,66.7,80.3,71.9,64.7,97,90,70,29.97,29.78,0,0,0,0.74
2013-7-11,72.3,67.4,65.9,68.4,65.8,64.4,96,95,87,29.96,29.91,0,0,0,0.74
2013-7-12,82.5,75.3,64.2,66.2,62.2,58.8,87,65,53,30.08,30.02,0,0,0,0.00
2013-7-13,87.7,75.2,63.5,72.9,65.9,60.1,90,74,54,30.15,30.06,0,0,0,0.00
2013-7-14,91.3,79.8,68.8,78.2,71.5,66.2,93,77,59,30.21,30.14,0,0,0,0.00
2013-7-15,93.5,81.8,72.3,78.4,72.5,69.3,92,75,54,30.29,30.20,0,0,0,0.00
2013-7-16,92.8,80.1,71.3,78.6,73.3,69.5,95,81,55,30.30,30.22,0,0,0,0.15
2013-7-17,94.5,83.1,72.9,79.0,74.7,71.7,97,78,55,30.28,30.14,0,0,0,0.15
2013-7-18,94.2,84.0,74.6,78.4,73.8,70.8,90,73,53,30.17,29.99,0,0,0,0.00
2013-7-19,91.5,80.6,73.1,78.8,73.8,67.6,91,80,63,30.00,29.85,0,0,0,0.20
2013-7-20,82.8,75.1,69.1,76.2,71.3,66.0,95,88,72,29.91,29.81,0,0,0,0.15
2013-7-21,84.9,75.5,68.8,76.9,70.6,67.2,96,85,65,29.95,29.86,0,0,0,0.15
2013-7-22,75.6,73.0,69.0,72.5,70.3,67.3,96,91,87,29.91,29.74,0,0,0,2.08
2013-7-23,86.8,75.6,67.8,77.1,70.5,66.3,96,85,66,29.78,29.66,0,0,0,0.02
2013-7-24,78.5,69.6,61.6,67.6,60.9,54.7,90,75,55,29.99,29.77,0,0,0,0.02
2013-7-25,80.5,67.2,54.0,62.8,55.2,51.6,93,68,43,30.07,29.99,0,0,0,0.00
2013-7-26,82.4,69.4,55.5,66.4,60.0,53.8,95,74,49,30.08,29.95,0,0,0,0.00
2013-7-27,75.8,67.9,63.0,69.3,64.1,60.6,96,88,70,29.95,29.80,0,0,0,0.44
2013-7-28,73.5,64.1,54.8,60.3,55.4,52.2,95,75,53,30.04,29.86,0,0,0,0.44
2013-7-29,79.0,66.4,56.8,61.5,56.3,52.6,89,71,52,30.18,30.03,0,0,0,0.00
2013-7-30,82.6,68.7,56.6,66.8,60.1,54.9,95,76,51,30.23,30.11,0,0,0,0.00
2013-7-31,74.8,69.8,65.7,68.6,65.3,62.3,95,86,78,30.12,29.92,0,0,0,0.04
2013-8-1,82.5,73.2,66.7,69.3,65.6,61.9,96,79,55,29.94,29.87,0,0,0,0.08
2013-8-2,81.2,70.6,59.3,67.8,62.1,57.3,94,76,55,29.99,29.90,0,0,0,0.00
2013-8-3,82.0,71.7,64.9,72.5,65.2,59.5,96,81,55,29.99,29.93,0,0,0,0.01
2013-8-4,78.8,68.7,60.5,63.2,58.9,53.8,93,73,48,30.11,29.99,0,0,0,0.01
2013-8-5,79.0,66.0,53.7,65.1,58.1,52.3,96,77,56,30.13,29.98,0,0,0,0.00
2013-8-6,85.8,72.5,62.5,69.3,62.3,57.9,90,72,49,29.99,29.91,0,0,0,0.00
2013-8-7,87.2,75.7,66.3,75.8,69.6,63.4,93,82,66,29.93,29.85,0,0,0,0.00
2013-8-8,87.4,74.7,70.7,77.5,72.1,69.8,97,92,69,29.94,29.86,0,0,0,1.69
2013-8-9,82.0,72.6,67.1,72.2,68.5,65.2,98,88,61,30.01,29.87,0,0,0,0.07
2013-8-10,84.6,74.3,65.9,71.1,67.5,64.7,97,81,60,30.09,30.01,0,0,0,0.08
2013-8-11,86.2,74.1,64.5,74.2,67.5,63.1,97,81,60,30.08,29.99,0,0,0,0.00
2013-8-12,86.2,74.1,62.2,72.4,66.9,60.8,96,80,58,30.06,29.85,0,0,0,0.12
2013-8-13,78.8,69.3,57.3,68.7,62.2,51.1,96,80,51,30.02,29.80,0,0,0,0.13
2013-8-14,70.7,60.3,51.5,58.6,51.5,47.8,91,74,54,30.17,30.02,0,0,0,0.00
2013-8-15,78.2,63.0,49.0,61.3,53.4,47.6,96,74,45,30.19,30.08,0,0,0,0.00
2013-8-16,80.0,66.4,55.1,61.3,55.6,52.2,92,70,44,30.15,30.10,0,0,0,0.00
2013-8-17,85.0,69.8,58.3,66.7,59.2,54.5,89,71,46,30.19,30.12,0,0,0,0.00
2013-8-18,82.8,68.4,59.4,70.5,63.0,56.8,94,84,62,30.18,30.10,0,0,0,0.00
2013-8-19,84.8,71.7,62.9,68.7,63.7,59.1,97,78,48,30.13,30.04,0,0,0,0.00
2013-8-20,86.5,71.7,59.1,70.8,63.6,57.8,96,78,51,30.17,30.08,0,0,0,0.00
2013-8-21,87.2,71.6,62.7,74.8,65.4,60.5,96,82,62,30.16,30.03,0,0,0,0.00
2013-8-22,86.0,73.5,63.1,74.1,67.6,61.6,96,83,62,30.10,29.98,0,0,0,0.00
2013-8-23,87.9,75.2,67.0,71.3,66.3,58.3,96,76,49,30.14,30.00,0,0,0,1.03
2013-8-24,86.0,70.8,57.7,69.3,60.7,54.8,91,72,47,30.26,30.14,0,0,0,0.00
2013-8-25,85.8,71.9,58.6,70.8,62.4,57.1,96,74,47,30.33,30.20,0,0,0,0.00
2013-8-26,88.6,73.9,59.7,73.2,66.0,58.1,96,78,50,30.24,30.02,0,0,0,0.00
2013-8-27,86.6,76.8,68.9,77.4,71.6,66.7,94,84,71,30.04,29.91,0,0,0,0.00
2013-8-28,88.3,80.0,73.6,77.0,73.1,70.2,90,80,67,29.94,29.79,0,0,0,0.01
2013-8-29,88.5,75.8,70.4,76.0,70.6,68.2,94,85,62,30.03,29.93,0,0,0,0.01
2013-8-30,75.7,71.0,67.0,68.8,67.7,65.5,95,89,79,29.98,29.81,0,0,0,0.00
2013-8-31,87.0,76.1,68.2,76.8,71.1,66.2,96,85,68,29.84,29.74,0,0,0,0.36
2013-9-1,87.2,75.5,67.3,74.8,69.8,66.2,97,84,59,29.81,29.72,0,0,0,0.36
2013-9-2,75.4,71.3,68.1,69.9,67.0,59.5,96,87,71,29.86,29.73,0,0,0,0.00
2013-9-3,69.3,62.9,55.4,59.4,55.7,53.0,92,78,63,30.06,29.86,0,0,0,0.00
2013-9-4,84.3,66.5,51.1,65.4,57.3,49.7,96,75,42,30.14,30.05,0,0,0,0.00
2013-9-5,82.7,68.5,58.6,68.3,58.2,46.6,92,72,43,30.20,30.08,0,0,0,0.00
2013-9-6,79.8,63.2,49.3,56.9,50.8,45.8,94,68,35,30.25,30.10,0,0,0,0.00
2013-9-7,86.5,68.3,50.7,68.9,58.8,48.9,95,74,52,30.11,29.93,0,0,0,0.00
2013-9-8,85.3,75.1,68.4,72.5,67.3,63.3,90,77,62,30.00,29.91,0,0,0,0.00
2013-9-9,90.5,76.0,62.6,72.8,66.8,60.7,94,75,52,30.03,29.93,0,0,0,0.00
2013-9-10,95.3,82.2,72.6,78.0,72.7,68.8,89,74,53,30.08,29.99,0,0,0,0.00
2013-9-11,92.2,78.7,70.9,78.2,72.3,68.3,94,82,54,30.11,29.96,0,0,0,0.08
2013-9-12,78.5,71.9,63.4,72.7,67.5,58.8,95,86,62,29.98,29.82,0,0,0,0.20
2013-9-13,68.2,59.1,52.0,58.7,51.2,46.7,89,76,59,30.08,29.87,0,0,0,0.20
2013-9-14,72.5,56.2,44.0,53.2,46.7,41.3,92,73,41,30.19,30.08,0,0,0,0.00
2013-9-15,76.9,60.1,43.7,59.4,51.3,42.4,96,76,45,30.16,30.02,0,0,0,0.00
2013-9-16,73.5,62.3,55.4,60.8,55.8,50.3,96,80,55,30.30,30.08,0,0,0,0.01
2013-9-17,77.3,60.4,46.9,59.4,51.9,45.5,96,76,48,30.34,30.19,0,0,0,0.01
2013-9-18,80.0,64.4,54.2,66.8,58.4,51.3,93,82,58,30.20,30.05,0,0,0,0.00
2013-9-19,75.0,68.0,65.5,71.0,65.8,63.1,96,93,84,30.09,29.97,0,0,0,0.17
2013-9-20,87.2,73.9,66.3,72.8,67.8,64.9,97,83,56,30.00,29.77,0,0,0,0.02
2013-9-21,75.2,66.2,57.1,67.7,60.3,49.1,97,83,56,29.84,29.66,0,0,0,0.03
2013-9-22,67.6,56.7,49.4,53.0,47.9,45.3,92,74,50,30.04,29.84,0,0,0,0.03
2013-9-23,69.2,54.1,42.5,52.8,46.5,41.1,96,78,49,30.15,30.03,0,0,0,0.00
2013-9-24,72.5,54.7,41.1,55.9,47.2,39.8,96,78,47,30.13,29.95,0,0,0,0.00
2013-9-25,73.5,58.1,46.6,58.2,51.1,44.9,96,79,52,29.96,29.88,0,0,0,0.00
2013-9-26,80.5,63.2,50.4,62.9,51.9,45.9,96,71,33,30.08,29.93,0,0,0,0.00
2013-9-27,80.3,61.7,47.2,61.0,52.1,45.3,94,74,41,30.18,30.08,0,0,0,0.00
2013-9-28,81.8,63.2,48.9,61.5,54.0,47.3,96,75,42,30.20,30.07,0,0,0,0.00
2013-9-29,77.8,63.7,53.2,64.3,58.1,51.5,96,83,54,30.07,29.97,0,0,0,0.00
2013-9-30,76.4,66.4,61.1,64.1,60.3,56.8,92,82,64,30.02,29.94,0,0,0,0.00
2013-10-1,82.2,67.1,54.0,66.3,58.7,51.7,95,77,51,30.08,29.99,0,0,0,0.00
2013-10-2,83.2,69.3,58.6,72.1,62.8,55.4,95,81,58,30.10,30.01,0,0,0,0.00
2013-10-3,80.7,71.2,65.3,72.2,66.3,62.9,94,85,65,30.07,29.99,0,0,0,0.25
2013-10-4,88.5,70.9,62.2,71.9,66.1,60.2,96,86,52,30.07,29.99,0,0,0,0.13
2013-10-5,84.5,72.2,64.0,74.6,67.4,62.2,96,86,61,30.04,29.92,0,0,0,0.17
2013-10-6,79.8,67.7,53.1,70.0,64.5,51.1,97,90,67,29.92,29.68,0,0,0,1.21
2013-10-7,64.8,53.5,45.0,52.0,47.1,42.8,95,80,53,30.17,29.77,0,0,0,1.46
2013-10-8,72.1,54.6,40.1,53.5,45.0,37.7,94,73,44,30.30,30.16,0,0,0,0.00
2013-10-9,74.5,56.0,42.4,54.1,45.8,40.2,94,72,39,30.29,30.18,0,0,0,0.01
2013-10-10,77.4,57.6,42.4,51.4,45.9,39.8,94,69,31,30.20,30.07,0,0,0,0.00
2013-10-11,80.0,61.5,47.2,59.7,49.8,44.1,91,69,38,30.11,30.01,0,0,0,0.00
2013-10-12,76.7,62.1,51.9,64.9,55.9,49.3,94,81,62,30.13,30.04,0,0,0,0.00
2013-10-13,69.9,61.8,54.6,63.2,58.0,52.9,94,88,78,30.28,30.12,0,0,0,0.00
2013-10-14,72.6,58.0,47.2,57.4,51.1,45.3,98,80,51,30.34,30.20,0,0,0,0.01
2013-10-15,70.5,58.9,47.1,64.2,56.0,45.6,99,90,79,30.22,29.94,0,0,0,0.00
2013-10-16,66.0,62.6,52.5,64.2,59.4,46.8,96,89,75,29.95,29.85,0,0,0,0.01
2013-10-17,56.6,49.0,40.8,52.2,45.1,38.1,94,86,81,29.97,29.83,0,0,0,0.10
2013-10-18,66.2,52.0,42.8,51.0,44.3,41.0,95,77,47,30.04,29.94,0,0,0,0.11
2013-10-19,49.0,46.1,41.1,46.3,43.2,38.8,94,90,81,29.99,29.81,0,0,0,0.14
2013-10-20,63.2,48.8,36.4,45.5,40.5,34.0,93,75,50,30.04,29.98,0,0,0,0.15
2013-10-21,68.4,52.8,38.9,49.7,41.6,36.5,92,69,37,30.02,29.88,0,0,0,0.00
2013-10-22,54.6,44.5,33.5,47.0,34.2,28.8,92,69,41,30.04,29.90,0,0,0,0.01
2013-10-23,48.4,40.3,34.4,40.0,36.8,32.8,96,88,66,30.03,29.79,0,0,0,0.01
2013-10-24,48.9,38.5,33.4,36.8,33.3,30.3,93,82,61,30.25,30.02,0,0,0,0.01
2013-10-25,52.2,38.2,28.9,39.1,30.1,26.1,90,74,47,30.42,30.25,0,0,0,0.01
2013-10-26,48.6,40.6,31.7,36.9,31.0,26.8,83,69,49,30.29,29.93,0,0,0,0.00
2013-10-27,58.7,42.9,30.6,40.3,33.9,27.6,91,73,43,30.13,30.05,0,0,0,0.00
2013-10-28,62.4,43.8,30.1,43.6,35.2,28.5,95,75,40,30.32,30.11,0,0,0,0.01
2013-10-29,59.2,46.6,36.3,45.3,40.3,34.7,96,80,51,30.39,30.24,0,0,0,0.01
2013-10-30,65.9,55.6,47.9,58.1,51.6,42.8,93,86,75,30.24,30.02,0,0,0,0.00
2013-10-31,66.0,61.5,59.7,62.1,58.5,57.1,95,90,74,30.02,29.33,0,0,0,0.64
2013-11-1,63.7,55.8,49.5,62.2,49.4,44.2,95,80,58,29.73,29.30,0,0,0,0.82
2013-11-2,54.2,49.3,44.1,44.6,42.3,39.3,88,77,63,30.06,29.71,0,0,0,0.00
2013-11-3,56.0,44.6,36.7,42.7,38.6,32.8,92,80,55,30.43,30.06,0,0,0,0.00
2013-11-4,57.6,45.0,35.9,42.3,36.2,30.8,87,72,52,30.47,30.34,0,0,0,0.00
2013-11-5,62.7,52.4,45.5,46.7,42.2,38.1,87,69,53,30.44,30.25,0,0,0,0.00
2013-11-6,66.8,55.4,42.3,58.1,47.9,36.8,94,77,56,30.25,29.94,0,0,0,0.32
2013-11-7,49.9,43.3,35.4,47.4,35.9,29.0,93,76,52,30.21,29.98,0,0,0,0.39
2013-11-8,48.7,38.3,32.3,37.9,32.8,29.0,93,81,58,30.37,30.18,0,0,0,0.02
2013-11-9,60.7,47.4,35.1,38.2,34.4,29.8,87,63,41,30.28,30.00,0,0,0,0.00
2013-11-10,51.4,42.2,31.2,39.1,33.3,27.8,89,72,53,30.35,30.05,7,0,7,0.00
2013-11-11,51.7,40.8,27.9,41.5,33.6,25.5,92,77,49,30.32,30.08,22,4,22,0.07
2013-11-12,35.7,29.1,24.2,31.6,24.3,20.8,92,82,70,30.61,30.24,20,6,20,0.12
2013-11-13,39.9,29.8,21.6,25.1,21.5,18.9,98,73,49,30.64,30.41,14,4,14,0.12
2013-11-14,53.7,37.8,24.7,29.8,24.1,20.8,86,61,32,30.41,30.18,20,4,20,0.00
2013-11-15,53.4,43.2,31.5,42.0,30.2,23.4,82,61,40,30.20,30.12,21,4,21,0.00
2013-11-16,58.2,52.3,46.3,53.4,47.7,41.4,89,84,81,30.17,29.93,17,5,18,0.00
2013-11-17,61.1,58.1,50.4,59.7,54.6,41.8,95,89,66,29.94,29.48,32,11,32,0.15
2013-11-18,53.4,45.1,35.3,42.2,36.6,27.5,89,73,51,30.17,29.73,27,7,27,0.15
2013-11-19,44.7,36.2,29.2,32.1,27.8,25.1,86,72,54,30.40,30.17,16,3,16,0.00
2013-11-20,50.6,36.7,26.6,33.8,28.5,22.7,92,73,51,30.41,30.28,14,2,16,0.00
2013-11-21,59.1,46.7,36.5,44.8,38.8,31.1,91,75,58,30.38,30.22,14,2,14,0.02
2013-11-22,52.8,47.2,36.0,51.4,44.5,29.5,95,90,77,30.36,30.15,20,4,20,0.10
2013-11-23,38.9,30.7,20.5,30.1,23.9,10.4,90,76,58,30.54,30.31,25,6,25,0.10
2013-11-24,30.5,20.9,15.3,14.2,11.6,8.0,81,68,48,30.69,30.54,22,4,22,0.00
2013-11-25,36.6,27.5,17.0,28.9,18.2,12.7,92,69,47,30.57,30.23,21,4,21,0.00
2013-11-26,34.6,32.3,30.4,33.1,30.5,28.6,94,93,89,30.25,29.91,10,2,10,0.08
2013-11-27,31.5,27.5,22.6,29.7,21.3,14.7,94,78,53,30.27,29.89,25,7,25,0.08
2013-11-28,30.6,27.0,20.3,23.6,20.7,16.0,88,77,67,30.47,30.27,20,4,20,0.08
2013-11-29,39.7,29.0,18.7,25.3,21.0,14.0,92,72,52,30.66,30.47,7,2,10,0.05
2013-11-30,45.2,32.3,24.8,33.2,26.5,20.5,90,80,61,30.59,30.21,14,2,14,0.01
2013-12-1,49.8,37.3,27.2,39.0,32.1,24.9,92,82,65,30.21,29.98,11,2,11,0.02
2013-12-2,47.2,39.5,34.1,39.1,35.2,31.2,92,85,72,29.98,29.84,8,2,8,0.07
2013-12-3,54.2,43.6,35.1,48.0,40.4,32.9,94,89,77,29.90,29.83,10,1,10,0.09
2013-12-4,61.5,52.8,42.3,54.8,48.7,40.1,94,86,77,29.92,29.76,17,4,17,0.00
2013-12-5,61.5,50.2,33.7,58.9,46.3,31.1,94,86,75,30.14,29.77,21,6,21,0.15
2013-12-6,33.8,30.3,26.6,31.2,28.2,24.8,93,92,89,30.40,30.10,17,4,17,0.18
2013-12-7,29.5,24.2,17.3,25.2,19.0,13.4,93,81,63,30.64,30.39,14,3,14,0.20
2013-12-8,31.5,25.6,17.7,30.9,21.8,14.5,100,85,79,30.60,30.04,10,3,14,0.20
2013-12-9,33.7,30.8,25.6,32.3,27.6,20.8,95,88,80,30.24,30.00,19,5,19,0.01
2013-12-10,27.5,22.2,16.2,20.9,16.6,10.7,89,79,65,30.38,30.15,21,4,21,0.01
2013-12-11,34.2,21.6,11.6,24.1,16.1,7.8,88,79,65,30.53,30.30,20,4,20,0.02
2013-12-12,21.0,16.3,9.4,13.2,7.7,4.7,83,69,54,30.57,30.36,15,4,15,0.02
2013-12-13,35.5,25.6,14.8,28.1,17.9,8.4,89,73,59,30.36,30.24,14,2,14,0.03
2013-12-14,36.4,33.7,30.7,35.4,32.4,27.9,96,95,89,30.25,29.72,18,2,18,0.59
2013-12-15,32.6,26.2,23.7,31.6,22.4,16.2,96,86,72,30.14,29.80,24,7,24,0.01
2013-12-16,28.5,25.2,21.5,26.3,21.2,18.2,92,85,78,30.20,30.03,12,2,12,0.01
2013-12-17,31.9,28.9,26.8,30.4,25.9,23.4,94,89,80,30.16,29.99,19,4,19,0.03
2013-12-18,30.8,26.7,24.0,24.8,21.3,18.5,90,80,64,30.28,30.09,14,5,17,0.04
2013-12-19,49.3,40.2,27.0,38.0,30.6,20.4,80,68,60,30.11,29.99,23,5,23,0.16
2013-12-20,57.6,52.2,45.6,55.3,46.2,34.9,94,80,63,29.99,29.83,24,8,24,0.03
2013-12-21,63.9,58.9,56.9,62.1,57.4,54.9,97,95,89,29.84,29.46,30,8,30,0.87
2013-12-22,63.9,55.2,42.2,62.1,51.3,38.8,98,87,71,30.01,29.47,31,8,31,1.26
2013-12-23,42.0,33.8,28.1,38.7,28.3,21.4,89,80,71,30.38,30.00,19,6,19,0.02
2013-12-24,28.0,19.1,13.1,21.9,13.7,7.9,85,79,70,30.61,30.35,21,5,21,0.00
2013-12-25,32.1,24.5,13.1,25.8,17.5,9.4,86,75,59,30.58,30.21,20,4,20,0.00
2013-12-26,39.7,32.9,26.0,27.6,24.2,21.0,83,71,50,30.37,30.18,24,6,24,0.00
2013-12-27,46.7,36.8,29.6,33.3,28.6,24.2,81,72,58,30.42,30.28,15,4,15,0.00
2013-12-28,53.6,40.8,33.1,37.8,31.8,27.5,83,71,54,30.28,30.03,16,5,16,0.00
2013-12-29,42.8,39.5,33.0,41.1,35.3,29.3,94,85,64,30.04,29.77,20,3,20,0.11
2013-12-30,32.9,28.2,24.3,29.5,22.9,19.0,92,80,74,30.25,29.99,18,4,18,0.11
2013-12-31,30.7,25.2,22.6,21.5,19.0,16.3,86,77,65,30.39,30.15,20,4,20,0.00
2014-1-1,38.7,30.3,21.6,30.5,25.4,18.4,90,82,70,30.34,30.08,11,2,11,0.00
2014-1-2,31.0,23.3,10.0,26.7,20.1,6.8,91,87,84,30.23,29.81,29,7,29,0.00